Wind_Speed
10 11 13 14 16 17 18 19 21 23 24 25 26 28 29 29 30 31 32 33 34 35 35 36 38 38 39 39 40 40 40 41 41 41 41 42 43 44 44 45 45 46 46 48
8 10 13 15 16 18 19 20 22 23 24 24 25 26 27 27 29 30 30 30 32 32 33 33 34 35 36 36 37 37 37 38 39 39 40 41 42 42 43 44 45 45 46 47
6 8 10 14 15 17 19 20 22 23 23 24 24 24 25 26 27 27 29 30 29 29 28 29 29 30 30 31 32 33 34 35 37 37 38 39 40 41 42 43 44 45 46 48
3 5 8 10 12 14 16 18 19 21 22 22 22 22 23 24 25 25 25 25 25 25 25 26 27 27 28 29 30 31 31 32 34 35 36 37 37 38 39 41 42 43 44 46
3 4 6 8 9 11 13 15 16 17 18 18 19 19 20 20 21 22 22 22 23 23 23 24 24 25 25 26 27 28 28 29 31 32 33 34 35 36 37 39 40 41 42 43
4 4 5 6 7 9 11 12 13 14 15 15 16 17 17 18 19 20 20 20 21 21 22 22 23 23 24 25 25 26 26 28 29 30 30 31 32 33 34 35 36 37 38 38
7 5 5 6 7 8 8 10 11 12 12 12 13 14 14 15 16 17 17 18 19 20 20 20 21 21 21 22 23 24 24 25 26 26 27 27 28 30 31 32 33 33 34 33
8 7 6 6 6 7 8 8 8 8 8 10 11 11 11 12 13 14 15 16 17 18 18 18 19 19 20 21 21 22 22 23 23 23 24 25 26 27 28 29 29 28 28 27
9 9 8 7 7 7 7 6 6 5 6 6 7 8 9 10 11 12 13 14 15 15 16 17 18 18 19 19 20 20 20 20 21 21 22 23 23 24 25 25 24 24 23 22
11 10 10 9 9 8 8 6 5 5 5 5 6 6 7 8 9 10 11 12 13 14 15 16 17 17 18 19 19 18 18 19 19 19 19 20 21 21 22 21 21 20 18 17
12 12 11 10 10 9 8 6 5 5 5 5 5 5 6 6 7 8 9 10 11 13 14 15 16 17 17 17 17 17 17 18 17 17 18 18 18 19 19 18 17 16 14 12
12 13 12 11 10 10 8 7 6 6 6 5 5 5 5 6 6 8 9 10 11 13 14 15 16 16 16 15 15 15 16 15 16 16 16 16 16 16 16 15 14 12 11 9
13 14 13 12 10 10 8 7 7 6 6 5 5 6 6 7 7 8 9 10 11 12 13 14 14 14 14 14 14 14 14 14 14 14 14 13 13 13 13 12 10 9 8 7
13 14 14 13 11 10 9 8 7 6 5 6 6 7 7 8 8 8 9 10 12 12 13 14 14 15 14 14 13 12 12 12 12 12 11 11 11 11 10 9 8 6 6 5
13 14 14 13 12 10 9 7 6 6 6 6 7 8 9 9 9 9 10 11 12 13 13 14 14 14 12 11 11 11 10 10 10 10 9 8 9 8 7 7 6 5 5 5
13 14 15 14 12 10 9 8 7 6 6 7 8 9 10 11 10 10 11 12 13 14 14 14 14 12 11 10 9 9 8 8 8 7 6 7 7 6 6 5 5 5 5 5
13 14 14 14 13 11 10 8 7 7 7 7 8 10 11 12 12 12 13 13 14 15 14 14 12 10 9 8 7 6 6 6 6 5 5 5 5 5 4 4 4 4 4 5
12 14 14 14 13 12 10 9 8 7 7 8 9 10 12 13 13 14 14 14 15 15 14 13 12 9 8 6 6 5 5 4 4 4 4 4 3 3 3 3 3 4 4 4
12 13 14 14 13 12 11 9 8 8 7 8 9 11 12 13 14 15 15 15 16 15 14 13 12 9 8 7 6 5 4 4 4 4 4 3 3 2 3 3 3 3 3 4
11 12 13 13 13 12 11 10 9 8 8 8 9 11 12 14 14 15 16 16 16 16 15 13 12 11 9 8 6 5 4 4 4 4 3 3 2 2 2 2 2 2 3 4
10 12 12 13 12 12 11 10 9 8 8 8 9 10 12 13 15 15 16 16 16 16 15 15 13 12 11 9 7 6 5 4 4 3 3 2 2 2 1 1 1 2 2 3
10 11 12 12 12 12 11 10 9 9 8 8 9 10 11 13 14 15 16 16 16 16 16 16 15 14 12 10 8 7 5 4 4 3 2 2 1 1 1 1 1 1 2 2
9 10 11 11 11 11 11 10 10 9 8 8 8 9 11 12 14 15 16 16 16 16 16 16 16 15 14 12 10 8 6 5 4 3 2 2 1 1 1 1 2 2 2 2
8 9 10 10 11 11 10 10 10 9 9 8 8 9 9 11 13 15 16 17 17 16 16 16 16 16 16 14 13 11 9 7 5 3 2 2 2 2 2 3 3 3 4 4
9 9 10 10 10 10 10 10 9 9 9 8 8 8 8 10 11 13 15 16 17 17 17 17 16 16 16 16 15 13 12 10 8 6 5 4 4 4 4 5 5 5 5 5
10 9 9 10 10 9 9 9 9 9 8 8 7 7 8 8 10 11 13 14 16 16 17 17 16 16 16 16 15 15 14 12 11 9 8 8 7 7 7 6 6 6 6 6
12 11 10 10 10 9 9 9 9 8 8 8 7 7 7 7 8 9 11 12 14 15 16 16 16 16 16 16 16 15 14 13 12 11 10 9 9 9 8 8 8 8 8 8
Wind_Direction
223 228 227 229 230 233 235 236 241 247 250 252 253 255 256 256 256 258 258 259 261 262 263 264 265 266 268 269 270 272 273 274 275 276 274 274 275 276 278 279 280 281 281 282
231 234 237 238 239 241 243 246 250 254 255 256 257 258 259 260 261 262 262 263 264 265 265 266 267 267 268 269 270 271 272 273 273 274 275 276 278 279 280 281 282 284 284 285
245 242 246 248 246 246 249 251 254 257 258 258 257 258 259 261 261 263 263 264 265 267 267 266 266 269 269 270 271 272 272 271 271 273 275 277 279 281 282 283 284 286 287 289
283 259 256 261 258 257 257 258 259 261 261 260 259 259 259 260 260 261 260 262 263 263 264 266 268 269 268 269 271 271 272 273 275 276 279 281 282 283 285 286 288 291 292 293
336 293 279 274 268 265 265 265 263 263 261 262 261 259 258 257 260 262 263 265 264 264 264 265 267 268 269 271 272 273 275 277 279 281 284 285 287 289 291 293 295 296 297 298
360 332 312 298 290 279 273 271 267 267 266 264 262 259 257 258 260 261 263 263 263 263 264 266 269 272 274 275 278 280 281 283 285 287 288 290 292 294 296 297 298 299 300 301
12 355 336 321 306 297 289 284 275 269 267 263 260 260 258 253 253 255 258 261 264 267 268 271 274 277 279 281 283 285 287 289 290 292 294 297 299 301 303 303 304 304 304 305
17 10 358 343 329 316 306 301 290 275 268 263 260 258 258 260 260 261 267 269 270 271 273 277 280 282 284 286 288 289 291 293 295 298 300 302 304 306 308 309 309 309 310 311
20 16 8 1 349 341 332 322 313 296 281 279 273 269 267 268 269 269 271 273 274 277 280 282 283 286 288 290 292 294 295 296 298 301 304 306 307 310 313 314 315 317 319 320
19 16 13 8 1 355 350 345 335 323 310 297 292 288 283 278 277 279 279 281 283 284 285 286 288 289 292 294 296 297 298 300 302 304 306 309 311 314 317 319 322 324 327 331
18 15 13 9 4 360 357 354 350 345 336 327 325 313 305 297 293 291 292 293 292 292 292 293 293 294 295 296 297 299 301 301 302 304 307 310 314 318 322 325 330 333 336 340
16 13 10 7 5 3 2 357 353 350 347 344 337 329 322 314 306 303 302 302 301 300 300 300 299 298 297 297 298 300 301 303 305 306 309 313 318 322 325 329 335 339 342 348
16 14 12 10 8 8 6 2 357 356 356 354 348 340 332 322 314 311 310 309 308 307 306 306 304 302 299 299 299 300 302 306 308 309 312 317 321 325 330 334 340 344 348 355
16 15 14 13 11 10 8 3 1 1 1 359 355 349 344 335 328 323 321 320 318 315 312 310 308 304 300 299 299 300 304 307 310 312 314 318 325 329 335 342 349 355 2 11
16 16 15 15 13 10 8 5 4 4 2 2 1 357 353 348 342 336 332 330 328 325 321 318 315 311 305 301 300 302 304 307 311 314 315 321 329 336 345 355 4 15 27 34
16 16 16 16 15 13 10 8 5 3 3 4 4 3 0 356 352 348 344 340 338 335 331 327 323 318 311 307 305 305 307 311 315 317 320 327 335 344 357 9 21 33 42 46
15 16 17 17 16 14 12 10 8 7 7 7 8 7 5 3 1 357 352 350 348 345 343 342 338 332 325 319 317 317 318 322 326 327 327 334 343 354 8 23 38 49 51 53
13 14 16 16 16 15 13 11 10 10 10 11 10 8 8 7 5 3 0 359 357 355 354 353 352 350 348 344 339 336 334 338 338 337 339 343 351 7 23 39 50 55 55 54
11 12 14 14 14 14 14 12 10 10 11 11 11 10 9 9 9 8 6 4 3 2 1 1 1 1 359 356 354 351 349 348 348 347 346 352 1 19 35 47 54 54 51 48
8 10 11 12 13 13 13 12 10 10 10 10 11 11 11 11 11 11 11 10 9 9 9 8 8 8 5 1 359 356 348 341 343 344 341 343 355 10 23 37 48 52 49 44
3 6 8 9 10 11 11 10 9 8 9 9 10 11 12 13 13 13 13 14 15 15 15 15 15 14 12 8 3 358 349 339 334 334 337 341 346 358 8 19 36 47 46 38
355 1 3 4 6 7 8 8 7 6 6 7 8 11 13 14 15 15 15 16 17 17 18 18 17 16 15 13 10 6 1 354 347 341 344 352 3 13 19 31 51 62 56 45
343 351 355 358 360 2 3 3 3 2 2 4 6 9 12 15 16 17 18 18 18 19 19 20 20 20 20 21 22 20 17 12 7 6 3 7 14 27 42 61 77 81 76 66
328 339 345 349 352 354 356 357 358 358 358 359 2 6 9 13 16 19 20 21 22 21 21 22 23 25 28 29 29 30 30 30 29 33 39 44 56 69 76 83 88 90 89 85
310 322 331 337 342 345 348 349 350 351 352 353 356 1 5 9 13 17 20 22 24 25 26 26 27 29 30 31 33 34 36 38 42 50 60 68 75 84 91 95 96 95 93 88
291 304 315 323 328 333 337 340 342 343 344 346 348 352 358 4 9 14 18 21 24 25 26 27 29 30 32 34 36 38 40 44 49 56 64 71 77 84 91 96 97 94 91 88
275 286 297 307 314 319 323 327 330 332 334 336 338 341 345 350 358 5 11 17 21 24 26 28 29 31 33 35 37 39 43 47 51 57 63 70 76 81 85 88 89 89 88 87
Height
5750 5752 5753 5755 5756 5758 5760 5762 5764 5764 5765 5766 5767 5768 5769 5770 5771 5772 5773 5773 5774 5774 5775 5775 5775 5774 5774 5773 5772 5771 5770 5768 5767 5765 5763 5761 5758 5756 5753 5750 5747 5744 5741 5737
5748 5749 5750 5751 5753 5754 5755 5757 5757 5758 5759 5760 5760 5761 5762 5762 5763 5764 5764 5764 5765 5765 5765 5765 5764 5764 5764 5763 5762 5761 5759 5758 5756 5755 5753 5750 5748 5745 5742 5739 5736 5732 5729 5725
5747 5747 5747 5748 5749 5749 5750 5751 5752 5752 5753 5753 5753 5754 5754 5755 5755 5755 5756 5755 5756 5756 5756 5755 5754 5754 5754 5753 5752 5751 5750 5748 5747 5745 5742 5740 5737 5735 5732 5729 5725 5722 5718 5713
5745 5746 5746 5747 5744 5745 5745 5745 5745 5746 5746 5746 5746 5747 5747 5748 5748 5748 5747 5747 5748 5747 5747 5747 5746 5745 5745 5744 5743 5742 5741 5739 5737 5736 5733 5731 5728 5725 5722 5718 5715 5711 5706 5702
5744 5743 5743 5743 5741 5741 5741 5740 5740 5740 5740 5740 5740 5740 5740 5740 5740 5741 5740 5741 5740 5740 5740 5739 5738 5738 5737 5736 5735 5734 5733 5731 5729 5727 5724 5722 5719 5716 5712 5709 5705 5701 5696 5691
5743 5742 5741 5741 5738 5737 5738 5736 5735 5735 5735 5735 5735 5735 5735 5734 5734 5734 5734 5734 5734 5734 5733 5733 5732 5731 5730 5729 5728 5727 5725 5723 5721 5719 5717 5714 5711 5707 5704 5700 5696 5691 5686 5681
5742 5741 5740 5738 5736 5735 5736 5734 5732 5731 5730 5730 5730 5730 5730 5729 5729 5729 5729 5728 5728 5728 5727 5726 5726 5725 5724 5723 5721 5720 5718 5716 5714 5712 5709 5706 5703 5700 5696 5692 5687 5682 5677 5672
5742 5741 5741 5736 5734 5734 5732 5729 5728 5727 5727 5726 5726 5726 5725 5725 5725 5724 5724 5724 5723 5722 5722 5721 5720 5719 5718 5717 5715 5714 5712 5710 5708 5706 5703 5700 5697 5693 5689 5685 5680 5675 5670 5665
5743 5742 5738 5735 5733 5731 5729 5727 5726 5725 5724 5724 5723 5723 5722 5722 5722 5721 5721 5720 5719 5718 5717 5716 5715 5714 5713 5711 5710 5708 5706 5704 5702 5700 5697 5694 5691 5687 5683 5678 5674 5669 5664 5659
5742 5739 5737 5734 5732 5730 5728 5726 5725 5723 5722 5722 5721 5720 5720 5719 5719 5718 5717 5716 5715 5714 5713 5712 5711 5709 5708 5706 5704 5702 5701 5699 5697 5694 5692 5689 5685 5682 5678 5673 5669 5664 5660 5656
5742 5739 5736 5734 5732 5729 5727 5725 5724 5722 5721 5720 5719 5718 5718 5717 5716 5715 5714 5713 5712 5711 5709 5708 5706 5704 5702 5701 5699 5697 5696 5694 5692 5689 5687 5684 5681 5677 5673 5669 5665 5662 5658 5654
5743 5740 5737 5734 5731 5729 5727 5725 5723 5722 5721 5719 5718 5717 5716 5715 5714 5713 5712 5710 5709 5707 5705 5703 5701 5699 5698 5696 5694 5693 5691 5689 5687 5685 5682 5680 5677 5673 5670 5666 5663 5660 5657 5654
5743 5740 5737 5734 5731 5728 5726 5724 5723 5721 5720 5719 5718 5717 5715 5714 5712 5711 5709 5708 5706 5704 5701 5699 5697 5695 5693 5691 5690 5688 5687 5685 5683 5681 5678 5676 5673 5670 5668 5665 5662 5659 5657 5654
5743 5740 5737 5733 5731 5728 5726 5724 5722 5721 5720 5719 5717 5716 5714 5712 5710 5709 5707 5705 5702 5700 5698 5695 5693 5690 5688 5687 5685 5684 5683 5681 5679 5677 5675 5673 5671 5668 5666 5663 5661 5659 5657 5655
5743 5740 5737 5733 5731 5728 5726 5724 5722 5721 5720 5718 5717 5715 5713 5711 5709 5707 5705 5702 5700 5697 5694 5691 5688 5686 5684 5682 5681 5680 5679 5678 5676 5674 5672 5671 5669 5667 5664 5662 5660 5658 5657 5655
5743 5740 5737 5734 5731 5728 5726 5724 5723 5721 5720 5718 5717 5715 5712 5710 5708 5705 5703 5700 5697 5694 5690 5687 5684 5682 5680 5678 5677 5677 5676 5675 5673 5672 5670 5669 5667 5665 5664 5662 5660 5659 5657 5656
5743 5740 5737 5734 5731 5729 5726 5724 5723 5721 5720 5718 5716 5714 5712 5709 5707 5704 5701 5698 5695 5691 5688 5684 5681 5678 5676 5675 5674 5674 5673 5672 5671 5670 5669 5667 5666 5665 5663 5662 5661 5659 5658 5657
5743 5740 5737 5735 5732 5729 5727 5725 5723 5721 5720 5718 5716 5714 5712 5709 5706 5703 5700 5697 5693 5690 5686 5682 5679 5677 5675 5674 5673 5672 5671 5670 5670 5669 5668 5666 5665 5664 5663 5662 5661 5660 5659 5658
5743 5740 5738 5735 5732 5729 5727 5725 5723 5721 5720 5718 5716 5714 5712 5709 5706 5703 5700 5696 5693 5689 5685 5682 5679 5676 5675 5673 5672 5671 5670 5669 5669 5668 5667 5666 5665 5664 5663 5662 5661 5660 5660 5659
5743 5740 5738 5735 5732 5730 5727 5725 5723 5722 5720 5718 5717 5714 5712 5709 5706 5703 5700 5697 5693 5689 5686 5682 5679 5677 5675 5673 5671 5670 5669 5669 5668 5667 5666 5666 5665 5664 5663 5662 5662 5661 5660 5659
5742 5740 5737 5735 5733 5730 5728 5726 5724 5722 5720 5719 5717 5715 5713 5710 5707 5704 5701 5697 5694 5690 5687 5683 5680 5677 5675 5673 5671 5670 5669 5668 5667 5667 5666 5665 5664 5664 5663 5662 5662 5661 5660 5660
5741 5739 5737 5735 5733 5730 5728 5726 5724 5722 5720 5719 5717 5715 5713 5711 5708 5705 5702 5699 5695 5692 5688 5685 5682 5678 5676 5673 5671 5670 5668 5667 5667 5666 5665 5665 5664 5663 5663 5662 5662 5661 5661 5660
5740 5738 5736 5735 5732 5730 5728 5726 5724 5722 5720 5719 5717 5715 5713 5711 5709 5706 5703 5700 5696 5693 5690 5687 5683 5680 5677 5674 5672 5670 5668 5667 5666 5666 5665 5664 5664 5663 5663 5662 5662 5662 5661 5661
5738 5737 5735 5734 5732 5730 5728 5726 5724 5722 5720 5719 5717 5716 5714 5712 5710 5707 5704 5701 5698 5695 5692 5689 5685 5682 5679 5676 5673 5671 5669 5668 5666 5666 5665 5664 5664 5663 5663 5663 5662 5662 5662 5662
5736 5735 5734 5732 5731 5729 5727 5725 5723 5722 5720 5719 5717 5716 5714 5712 5711 5708 5706 5703 5700 5697 5694 5691 5687 5685 5682 5678 5676 5673 5671 5669 5668 5666 5666 5665 5665 5664 5664 5664 5664 5663 5663 5663
5733 5732 5731 5730 5729 5728 5726 5724 5723 5721 5720 5718 5717 5716 5714 5713 5711 5709 5707 5704 5702 5699 5696 5693 5690 5687 5684 5681 5679 5676 5674 5672 5670 5669 5668 5667 5666 5666 5666 5666 5666 5665 5665 5665
5729 5729 5729 5728 5727 5726 5725 5723 5722 5720 5719 5718 5716 5715 5714 5713 5711 5710 5708 5706 5703 5701 5698 5695 5693 5690 5687 5684 5682 5680 5677 5675 5674 5672 5671 5670 5669 5669 5669 5668 5668 5668 5667 5667